Theta_e
341 342 343 344 344 338 339 338 338 337 338 339 339 339 340 339 337 343 340 338 336 335 342 328 324 319 317 325 323 322 324 320 318 315 313 313 312 310 311 310 310 310 312 313 312 310 309 308 308
341 343 345 341 338 337 337 338 337 339 338 340 340 340 340 340 338 339 339 336 336 339 341 339 323 319 318 320 318 318 317 316 313 312 312 312 310 311 311 311 310 309 309 309 309 309 309 309 309
342 342 343 340 336 337 337 338 340 339 340 340 341 341 339 339 339 338 337 337 336 340 339 326 325 324 322 319 319 316 314 311 311 311 312 311 314 313 313 312 312 311 310 310 309 309 309 310 310
343 342 342 340 338 338 338 338 339 340 340 341 342 341 339 338 336 333 334 337 338 340 338 324 327 327 320 316 314 312 310 309 310 310 313 314 315 316 316 316 315 315 314 314 314 313 314 314 315
342 341 340 340 339 339 339 339 339 341 340 341 341 341 339 338 336 336 338 338 339 340 338 330 328 329 321 318 315 312 311 312 315 315 315 316 317 318 318 317 317 317 316 320 320 318 316 316 317
343 340 340 340 339 338 338 338 340 339 340 341 342 341 340 340 339 339 339 339 341 341 338 330 328 330 326 324 320 316 315 316 318 320 318 319 319 319 319 319 318 317 315 316 318 317 316 317 318
342 341 340 340 340 339 339 339 340 340 340 342 342 342 341 341 341 341 340 341 342 342 339 339 338 330 328 326 325 321 319 317 316 319 321 319 320 320 321 321 320 318 317 315 315 315 315 314 319
342 342 341 341 341 340 338 338 339 339 342 341 342 342 342 341 342 341 341 341 343 343 340 340 340 337 335 329 327 325 323 320 318 317 319 321 322 320 322 321 325 318 317 316 315 315 314 313 317
341 343 341 340 340 340 338 338 339 338 341 342 341 340 340 342 342 341 341 342 343 343 341 340 338 337 336 332 329 327 325 323 322 323 319 323 325 324 325 322 319 318 317 315 316 316 316 315 316
341 341 340 338 338 339 338 338 338 341 342 342 340 342 342 342 342 341 342 342 344 344 343 340 338 337 335 332 333 333 332 330 327 324 321 325 324 320 323 322 319 320 316 316 317 316 317 322 321
339 340 339 337 338 338 339 338 339 340 342 340 338 340 341 342 343 341 342 342 343 345 344 341 339 333 335 333 334 333 333 331 327 321 323 321 324 323 323 324 324 323 321 323 323 323 322 323 323
340 338 340 340 338 339 340 340 341 342 343 342 340 342 343 343 342 342 342 342 343 344 345 343 340 327 331 333 333 334 333 331 329 327 324 323 325 325 324 324 324 324 323 323 323 322 322 323 324
338 338 341 340 339 340 340 341 342 343 343 341 341 342 343 344 343 344 343 343 343 345 345 344 341 332 326 330 332 331 334 331 330 328 325 327 326 326 326 325 324 324 323 323 323 322 323 323 323
337 339 341 341 342 341 341 342 342 344 345 342 341 341 342 342 343 343 343 343 343 345 345 345 343 333 326 328 331 331 334 333 331 329 328 325 327 327 326 326 325 325 324 324 323 322 323 323 323
339 341 340 341 341 342 341 343 344 344 344 342 341 341 341 341 341 340 339 339 339 339 345 346 344 340 326 326 329 331 334 333 332 330 323 325 327 327 328 326 326 326 325 325 323 323 323 324 323
340 339 340 342 341 341 341 345 345 343 345 344 342 341 341 342 343 339 337 337 337 339 340 345 344 342 327 325 328 333 335 334 333 331 329 325 327 326 329 327 326 326 326 325 324 323 324 323 323
338 337 337 339 342 343 342 343 343 341 341 342 343 343 342 341 339 337 337 333 325 326 334 338 344 341 337 326 328 330 335 334 333 331 329 329 330 329 328 328 327 326 325 325 324 324 324 324 324
336 336 337 337 343 342 341 342 342 342 340 340 341 342 342 341 339 335 332 329 325 325 330 333 335 339 334 332 328 334 334 332 331 331 329 329 330 330 328 328 327 325 325 326 326 323 325 324 325
335 335 335 340 343 343 342 342 341 340 340 341 342 341 342 343 340 335 331 329 326 326 326 329 330 328 326 329 334 333 334 332 331 330 329 329 330 330 330 328 328 326 324 326 326 326 325 326 325
334 335 336 339 342 342 342 341 340 339 341 341 340 341 342 341 338 338 333 329 327 327 328 328 327 325 324 333 332 333 333 331 331 329 329 325 327 330 330 329 327 326 326 325 326 326 327 325 325
335 335 336 338 343 341 341 342 341 340 340 339 339 342 340 340 340 338 340 333 329 327 328 328 328 327 327 329 327 327 327 326 330 328 330 328 326 328 328 328 326 326 324 326 326 326 326 326 327
335 335 337 339 340 340 341 339 341 340 341 339 339 339 339 340 341 340 342 340 335 330 328 330 329 330 329 327 328 327 331 331 331 330 330 331 327 327 329 326 323 323 327 327 327 325 326 326 325
335 336 339 340 340 342 342 340 343 341 341 341 340 340 339 340 340 341 343 342 339 337 330 331 330 330 330 329 328 328 329 330 331 329 331 328 331 327 328 327 326 326 327 327 325 327 321 326 326
337 339 340 340 339 340 343 340 340 340 340 338 339 339 338 338 338 339 340 343 343 341 338 331 331 331 331 330 330 329 329 330 332 330 331 332 332 328 329 330 328 327 329 329 326 324 322 326 327
338 341 340 340 339 337 342 341 341 339 339 337 338 336 338 338 338 339 340 341 341 343 342 337 332 332 332 332 330 329 330 330 332 329 333 332 331 332 332 327 326 329 327 328 329 327 326 328 327
339 340 339 339 338 336 342 339 343 340 340 340 338 337 339 339 339 339 339 339 339 340 343 341 335 333 333 333 331 332 329 330 333 331 334 334 333 332 332 331 327 327 328 330 329 327 327 329 326
339 338 338 340 340 337 338 339 340 339 340 339 338 339 341 340 339 339 340 341 340 341 339 340 340 338 337 337 334 335 329 329 333 331 330 334 333 334 330 327 327 331 330 330 329 327 327 323 323
336 337 339 340 338 339 337 336 340 339 339 339 339 340 339 338 337 337 337 338 338 339 342 342 342 341 342 341 341 341 337 333 332 331 331 332 332 329 329 327 332 331 331 330 327 328 328 324 325
337 338 339 340 338 338 337 338 339 340 342 342 340 339 339 337 335 334 333 333 334 332 335 340 342 342 342 343 342 342 339 337 334 332 331 328 330 330 329 329 329 332 332 331 328 327 323 328 329
337 338 339 340 341 338 339 336 341 342 342 341 340 340 338 335 333 331 332 333 333 333 333 338 342 342 342 341 339 337 335 337 334 331 330 328 328 330 329 330 328 332 332 330 330 329 328 325 325
Wind_Speed
7 9 4 3 5 3 10 11 3 10 7 6 5 5 11 11 10 5 13 10 10 9 7 5 6 6 5 5 3 1 2 4 5 5 3 1 1 2 2 1 1 2 3 3 4 3 2 1 4
4 5 3 5 1 7 10 6 13 10 9 7 6 3 6 11 8 13 12 10 11 10 8 5 7 7 6 4 2 1 1 3 3 3 2 2 3 3 2 2 2 2 2 3 4 5 4 3 2
3 2 6 1 7 10 10 9 10 10 6 4 4 7 5 8 8 8 8 12 12 10 7 4 6 8 8 5 3 3 3 3 2 2 2 3 4 4 4 5 5 4 4 4 4 4 5 4 3
2 2 4 3 11 9 9 8 6 6 4 3 4 10 9 6 8 8 13 12 10 9 7 5 7 8 8 7 6 4 3 3 3 3 3 5 5 5 5 6 6 6 6 6 5 3 3 4 5
3 5 3 7 10 6 4 4 2 5 5 7 3 7 12 9 12 12 12 13 11 8 6 4 6 8 8 9 9 7 6 6 6 5 4 4 3 3 4 4 5 5 5 5 5 4 3 3 5
6 5 2 7 7 5 4 2 4 3 4 7 7 10 10 11 11 11 11 12 10 9 7 3 4 7 8 9 9 9 8 7 6 5 4 2 1 2 3 4 4 5 5 4 4 4 4 4 5
6 4 5 3 5 3 4 2 2 4 3 8 7 7 9 10 10 12 12 11 10 9 8 6 5 4 5 7 8 8 7 6 6 4 2 1 1 3 4 4 4 5 6 6 5 6 6 3 2
4 4 4 2 4 1 5 4 1 2 9 7 3 3 11 12 12 12 12 11 10 9 8 6 7 5 4 2 5 7 7 6 6 4 2 1 3 4 5 3 6 5 7 6 5 6 6 4 1
2 5 1 1 3 5 5 6 3 2 8 5 6 9 10 14 13 13 12 10 10 10 10 9 8 8 7 5 2 5 5 5 4 4 4 4 2 3 5 3 4 6 6 5 5 6 6 6 6
6 4 7 7 6 8 3 7 10 5 6 7 11 10 12 13 13 12 12 11 12 13 12 11 10 10 8 7 6 5 2 1 1 1 3 3 1 1 2 4 7 8 6 6 8 8 7 9 2
1 9 8 3 6 6 4 2 2 3 4 7 12 12 12 13 12 10 10 10 12 13 13 14 12 10 11 8 7 6 4 2 1 3 4 3 2 2 2 4 5 4 7 4 6 7 4 3 2
8 6 9 7 3 1 2 3 5 6 6 3 4 11 12 11 9 9 9 10 12 13 15 15 15 13 12 11 9 8 6 4 3 2 3 5 3 2 1 2 4 5 4 6 8 6 5 3 3
7 4 4 5 3 1 1 3 4 6 4 4 8 11 10 8 6 6 10 10 12 15 16 17 18 16 13 13 11 9 8 6 6 3 1 1 3 1 1 1 2 3 4 6 7 5 3 3 3
5 3 2 2 5 1 5 2 5 5 4 5 5 6 6 5 6 9 12 14 15 17 18 18 20 17 14 13 12 10 9 9 7 6 3 1 2 1 1 3 4 4 5 6 6 3 2 2 1
2 5 3 3 4 0 3 7 4 2 2 3 4 3 2 3 5 8 11 14 15 16 19 19 20 17 16 14 13 13 10 9 8 7 6 3 1 3 1 3 4 4 5 5 6 3 2 2 2
5 4 5 6 3 3 5 4 5 3 2 2 2 3 2 3 3 2 5 10 12 11 14 17 18 18 18 16 14 12 11 10 10 9 7 6 4 1 3 4 4 4 4 4 5 2 3 2 2
5 5 4 2 3 2 4 7 5 5 5 2 2 2 2 2 1 0 3 8 13 12 6 8 16 17 16 17 14 12 12 11 10 10 9 8 6 4 2 3 4 3 3 3 2 2 2 3 3
7 5 1 6 4 3 3 4 5 5 2 0 1 2 4 2 3 1 6 9 12 12 7 1 9 15 16 15 15 10 11 10 11 11 10 9 7 6 5 5 4 2 3 2 2 1 2 2 4
5 7 8 1 2 6 4 4 3 3 3 6 4 3 4 3 5 2 5 8 10 12 11 6 6 14 17 16 11 9 8 8 10 11 12 10 8 9 7 5 5 3 2 4 3 2 2 1 2
5 9 9 3 2 6 5 5 4 4 6 4 1 4 1 3 6 4 2 8 8 8 7 5 6 9 15 12 11 9 7 8 9 10 11 11 10 10 9 7 6 6 5 4 5 4 3 3 2
9 8 11 8 1 2 9 6 9 8 6 4 3 4 2 2 3 4 3 2 6 6 4 5 6 7 10 16 17 14 13 9 9 10 10 11 12 12 12 11 9 8 5 6 6 6 5 4 5
13 6 6 4 8 7 7 4 9 4 1 2 1 3 2 1 2 4 4 6 5 4 2 1 4 8 11 15 16 15 11 8 8 9 10 11 13 13 13 13 12 8 7 8 8 8 7 7 6
7 5 4 4 5 7 2 10 12 5 6 4 2 4 3 3 4 5 4 6 6 7 6 4 6 9 13 14 17 16 14 11 8 11 11 12 13 13 12 14 14 12 9 10 10 11 10 9 8
5 4 5 4 4 9 6 6 11 9 7 7 8 8 6 6 7 8 6 6 6 7 10 8 9 9 9 13 15 16 16 16 10 12 11 10 12 13 14 14 15 15 13 12 11 12 12 10 11
4 8 3 3 2 7 3 5 7 7 4 4 5 7 8 8 10 11 10 9 9 10 10 10 11 10 7 12 13 15 12 15 14 15 12 12 10 11 14 14 16 14 16 16 13 13 13 13 13
5 5 7 10 6 2 5 3 7 6 5 3 3 4 8 10 12 12 12 12 12 7 8 11 14 15 13 13 13 14 14 14 13 14 13 11 11 12 13 14 16 17 17 16 16 14 15 15 17
5 7 4 6 4 10 1 5 5 8 7 6 7 7 10 11 12 12 13 13 13 11 8 5 11 12 13 14 14 15 15 14 13 12 16 13 14 13 15 17 17 16 15 16 17 17 18 18 20
6 2 5 7 6 8 2 5 6 9 7 4 6 9 10 9 11 12 14 15 15 14 11 6 8 10 12 11 10 11 11 13 12 10 9 12 14 15 16 17 17 17 15 16 18 18 18 20 20
4 7 4 5 5 9 7 5 6 8 6 5 7 7 7 8 10 12 12 13 15 16 14 9 5 6 6 7 8 9 11 12 12 13 9 8 12 15 15 17 18 16 16 16 18 20 22 20 19
4 4 4 7 2 4 8 10 5 7 5 5 6 5 6 7 10 11 11 12 14 15 15 11 7 6 6 6 7 8 9 10 12 13 13 10 13 13 14 16 17 15 14 15 17 19 20 22 20
Wind_Direction
352 355 327 280 220 107 67 66 16 53 77 63 80 7 57 33 7 35 141 136 132 135 138 68 35 66 96 119 122 163 227 275 281 284 295 339 55 69 82 78 34 0 351 331 322 324 314 208 232
355 330 308 282 345 83 70 53 59 50 75 100 93 129 43 68 58 117 137 144 139 146 134 129 59 79 78 94 93 80 305 300 304 326 32 63 75 92 78 43 28 13 6 0 346 341 344 333 259
9 332 293 20 44 58 85 77 71 96 85 53 85 47 34 79 101 122 130 141 149 143 132 83 72 71 67 72 60 20 353 341 349 61 82 96 100 91 81 74 67 59 55 50 35 8 0 5 356
317 227 212 47 71 80 60 85 59 110 99 65 69 81 88 81 118 120 139 148 150 147 137 71 79 78 76 71 59 42 39 50 73 84 99 115 96 86 73 66 59 55 55 53 51 56 31 8 354
311 242 122 83 94 91 82 42 79 118 87 78 19 101 104 111 125 134 149 154 153 148 141 110 99 92 89 79 73 77 80 91 95 95 97 115 95 71 57 39 30 29 28 36 28 26 24 14 0
233 284 172 78 96 113 107 116 152 118 102 102 101 100 105 139 144 156 161 163 163 163 148 183 115 94 89 80 80 80 81 91 93 93 103 123 104 28 20 19 0 7 2 352 351 342 347 351 0
307 288 36 54 94 180 95 168 168 63 55 83 107 84 121 150 159 165 171 174 173 171 167 164 158 100 96 91 84 78 77 82 76 79 87 96 53 329 328 330 335 337 344 338 340 341 336 331 339
275 266 252 116 65 116 151 193 96 15 73 110 109 41 127 155 162 169 173 178 179 184 184 174 174 175 159 133 87 79 72 70 64 68 72 69 14 347 339 336 322 325 331 332 337 346 350 347 287
318 262 50 42 268 56 154 187 168 104 134 120 93 75 109 154 164 169 173 179 188 200 193 190 183 189 175 189 161 81 73 75 58 44 53 52 34 342 11 297 301 328 331 336 349 354 358 18 358
275 298 21 357 341 323 170 230 152 168 154 130 110 100 129 156 169 175 182 188 199 206 204 202 196 197 195 185 200 173 170 169 180 41 57 55 58 139 79 22 3 344 335 355 351 351 16 25 335
48 359 356 4 350 323 338 223 102 356 183 110 125 128 147 165 179 190 198 205 216 216 212 210 205 209 201 190 199 204 201 223 264 27 50 26 69 13 36 17 355 6 352 344 341 336 333 322 32
282 16 349 0 0 312 127 107 107 70 72 67 122 144 153 173 189 205 223 230 229 226 218 218 211 221 214 206 206 209 206 212 226 249 16 26 59 26 48 20 16 10 337 338 334 326 306 324 335
261 38 0 44 106 67 112 88 68 82 59 92 128 147 171 187 209 243 255 256 251 243 232 222 212 225 229 227 220 207 217 228 230 226 291 60 106 125 49 0 39 22 10 348 346 345 321 324 336
2 353 50 59 67 96 244 119 239 77 46 118 136 158 178 208 248 272 280 284 273 258 243 226 219 225 231 235 233 228 222 225 222 231 209 261 142 99 9 4 7 9 2 353 352 338 15 332 332
186 242 236 166 3 179 290 223 66 61 83 103 150 154 205 261 285 293 302 305 298 276 254 234 219 223 228 237 234 232 229 233 227 224 240 221 180 342 42 338 0 337 348 0 352 357 5 0 338
247 260 280 85 356 124 235 79 127 63 98 81 119 166 241 301 314 350 336 329 335 303 250 228 219 217 229 236 231 229 233 230 230 230 222 226 237 305 4 339 330 306 338 349 353 349 337 323 297
190 12 357 128 39 323 249 0 134 109 76 341 257 201 180 169 125 256 0 21 29 14 350 220 208 213 218 231 226 229 230 234 230 230 225 233 221 226 281 294 293 314 321 333 0 324 305 293 295
37 349 67 324 57 276 314 36 121 173 329 64 99 199 201 212 180 156 57 42 56 57 50 1 213 212 216 225 225 229 233 239 221 223 224 230 229 240 267 279 289 306 295 300 280 336 299 305 302
326 303 301 63 43 297 5 316 108 162 213 176 207 200 215 268 187 145 52 45 52 74 71 91 197 224 220 223 213 225 240 248 238 230 225 225 227 239 250 249 263 258 257 241 268 305 299 275 294
308 303 277 193 152 288 3 335 65 140 120 145 197 194 146 136 180 180 63 43 48 57 83 107 161 208 220 219 215 219 248 261 247 246 238 236 238 237 247 241 242 238 235 258 245 247 218 259 268
275 311 310 314 69 186 306 168 120 125 133 132 130 175 152 51 226 228 268 15 32 30 62 123 165 186 209 220 231 245 259 273 260 248 251 249 245 240 241 241 224 234 232 243 244 243 227 245 271
294 358 276 260 274 352 2 340 111 150 96 185 137 139 57 20 335 252 254 259 309 347 335 179 153 192 217 230 225 238 228 234 243 237 239 233 246 241 237 233 233 233 227 232 243 241 223 251 260
330 308 240 220 265 294 150 283 104 158 137 80 83 72 55 4 346 349 295 264 282 282 287 272 213 215 222 234 232 247 243 251 262 236 238 250 241 247 233 229 234 236 235 243 230 232 240 241 250
133 160 196 198 275 265 78 299 107 79 47 68 65 61 53 29 0 357 332 298 289 264 262 239 229 225 243 243 249 255 256 266 249 229 228 234 241 249 232 225 237 243 239 238 243 241 239 233 246
249 219 223 258 302 290 123 252 47 78 54 19 37 50 39 14 9 359 354 343 320 285 257 233 238 251 285 255 253 269 269 264 268 227 233 223 236 233 233 245 244 248 250 237 236 241 231 243 259
241 298 307 304 292 0 153 264 96 78 68 112 101 50 32 12 7 7 8 10 5 352 263 238 245 261 290 284 261 273 275 271 259 233 226 231 228 238 234 248 248 252 245 240 240 244 245 248 262
121 246 16 288 211 267 48 148 137 140 114 118 81 51 39 39 36 31 26 23 19 16 11 290 249 262 276 285 258 273 278 280 256 247 252 239 238 241 251 256 254 247 246 238 240 248 246 262 273
289 68 231 201 276 289 142 240 121 174 136 102 68 63 65 46 31 25 16 14 9 4 358 323 283 287 294 294 284 274 265 278 256 249 258 242 245 253 252 256 250 247 242 243 248 245 256 270 275
180 209 249 298 292 308 293 71 80 117 103 94 91 84 67 40 22 11 10 10 8 6 356 346 329 320 314 313 309 280 267 272 259 256 256 265 261 259 261 260 257 245 244 245 253 254 265 270 273
293 327 275 284 162 242 300 296 89 126 124 125 114 93 56 31 14 6 3 4 4 3 2 355 358 2 350 348 328 309 285 273 266 262 258 257 262 265 270 263 257 249 251 257 257 260 269 275 267